Weather History for KHSP - February, 2012

Change the Weather History Date:

Saturday, February 11, 2012

  Actual Average Record
Temperature  
Mean Temperature 17 °F -  
Max Temperature 28 °F 35 °F 60 °F (1999)
Min Temperature 5 °F 21 °F 3 °F (2008)
Degree Days  
Heating Degree Days 48    
Moisture  
Dew Point 14 °F    
Average Humidity 86    
Maximum Humidity 100    
Minimum Humidity 67    
Precipitation  
Precipitation 0.00 in - - ()
Sea Level Pressure  
Sea Level Pressure 29.70 in    
Wind  
Wind Speed 16 mph (WNW)    
Max Wind Speed 31 mph    
Max Gust Speed 51 mph    
Visibility 6 miles    
Events Snow    
Averages and records for this station are not official NWS values.
T = Trace of Precipitation, MM = Missing Value Source: NWS Daily Summary

Daily Weather History Graph

Daily Weather History Graph

Search for Another Location

Airport or City:

Trip Planner

Search our weather history database for the weather conditions in past years. The results will help you decide how hot, cold, wet, or windy it might be!

Date:

Astronomy

Feb. 11, 2012 Rise Set
Actual Time 7:14 AM EST 5:53 PM EST
Civil Twilight 6:47 AM EST 6:20 PM EST
Nautical Twilight 6:16 AM EST 6:51 PM EST
Astronomical Twilight 5:45 AM EST 7:22 PM EST
Moon 10:33 PM EST (2/11) 9:01 AM EST (2/11)
Length of Visible Light 11h 33m
Length of Day
10h 38m
Waning Gibbous, 82% of the Moon is Illuminated
Feb 11
Waning Gibbous
Feb 14
Last Quarter
Feb 21
New
Feb 29
First Quarter
Mar 8
Full

Hourly Weather History & Observations

Time (EST) Temp. Windchill Dew Point Humidity Pressure Visibility Wind Dir Wind Speed Gust Speed Precip Events Conditions
12:15 AM 28.4 °F 18.5 °F 28.4 °F 100% 29.79 in 0.2 mi West 11.5 mph - N/A Snow Heavy Snow
12:35 AM 28.4 °F 17.5 °F 28.4 °F 100% 29.79 in 0.2 mi West 13.8 mph 18.4 mph N/A Snow Heavy Snow
12:55 AM 26.6 °F 14.3 °F 26.6 °F 100% 29.78 in 0.2 mi West 16.1 mph - N/A Snow Heavy Snow
1:17 AM 26.6 °F 16.2 °F 26.6 °F 100% 29.77 in 0.2 mi West 11.5 mph - N/A Snow Heavy Snow
1:35 AM 26.6 °F 14.3 °F 26.6 °F 100% 29.76 in 0.2 mi West 16.1 mph 19.6 mph N/A Snow Light Snow
1:55 AM 26.6 °F 15.7 °F 26.6 °F 100% 29.75 in 0.2 mi West 12.7 mph - N/A Snow Light Snow
2:15 AM 26.6 °F 14.7 °F 26.6 °F 100% 29.74 in 0.2 mi West 15.0 mph - N/A Snow Light Snow
2:37 AM 26.6 °F 14.7 °F 26.6 °F 100% 29.73 in 0.2 mi West 15.0 mph - N/A Snow Light Snow
2:55 AM 26.6 °F 14.7 °F 26.6 °F 100% 29.73 in 0.2 mi West 15.0 mph - N/A Snow Light Snow
3:15 AM 26.6 °F 14.3 °F 26.6 °F 100% 29.72 in 1.0 mi West 16.1 mph - N/A Snow Light Snow
3:37 AM 26.6 °F 16.2 °F 26.6 °F 100% 29.72 in 0.2 mi West 11.5 mph - N/A Snow Light Snow
3:56 AM 24.8 °F 14.0 °F 24.8 °F 100% 29.71 in 1.0 mi West 11.5 mph - N/A Snow Light Snow
4:17 AM 24.8 °F 13.4 °F 24.8 °F 100% 29.70 in 7.0 mi West 12.7 mph - N/A   Overcast
4:35 AM 24.8 °F 14.0 °F 24.8 °F 100% 29.69 in 10.0 mi West 11.5 mph - N/A   Overcast
4:55 AM 24.8 °F 14.0 °F 24.8 °F 100% 29.69 in 10.0 mi West 11.5 mph 17.3 mph N/A   Overcast
5:15 AM 24.8 °F 13.4 °F 24.8 °F 100% 29.69 in 10.0 mi WNW 12.7 mph - N/A   Overcast
5:35 AM 24.8 °F 14.6 °F 24.8 °F 100% 29.68 in 10.0 mi West 10.4 mph - N/A   Overcast
5:55 AM 24.8 °F 14.6 °F 24.8 °F 100% 29.68 in 10.0 mi West 10.4 mph - N/A   Overcast
6:15 AM 24.8 °F 14.0 °F 24.8 °F 100% 29.68 in 7.0 mi West 11.5 mph 17.3 mph N/A   Overcast
6:37 AM 24.8 °F 16.1 °F 24.8 °F 100% 29.68 in 7.0 mi West 8.1 mph - N/A   Overcast
6:55 AM 24.8 °F 15.3 °F 24.8 °F 100% 29.68 in 4.0 mi West 9.2 mph - N/A   Overcast
7:17 AM 24.8 °F 14.6 °F 24.8 °F 100% 29.68 in 1.0 mi West 10.4 mph - N/A Snow Light Snow
7:35 AM 24.8 °F 14.6 °F 24.8 °F 100% 29.69 in 0.2 mi West 10.4 mph - N/A Snow Light Snow
7:55 AM 24.8 °F 15.3 °F 24.8 °F 100% 29.70 in 0.2 mi West 9.2 mph 16.1 mph N/A Snow Light Snow
8:15 AM 24.8 °F 15.3 °F 24.8 °F 100% 29.70 in 0.2 mi West 9.2 mph - N/A Snow Light Snow
8:57 AM 24.8 °F 12.4 °F 24.8 °F 100% 29.70 in 4.0 mi WNW 15.0 mph 20.7 mph N/A Snow Light Snow
9:15 AM 24.8 °F 14.6 °F 24.8 °F 100% 29.69 in 7.0 mi West 10.4 mph 17.3 mph N/A   Overcast
9:35 AM 24.8 °F 14.0 °F 24.8 °F 100% 29.69 in 10.0 mi West 11.5 mph 19.6 mph N/A   Overcast
9:55 AM 24.8 °F 13.4 °F 24.8 °F 100% 29.68 in 10.0 mi West 12.7 mph 17.3 mph N/A   Overcast
10:15 AM 24.8 °F 14.6 °F 24.8 °F 100% 29.68 in 7.0 mi West 10.4 mph - N/A   Overcast
10:35 AM 24.8 °F 16.9 °F 24.8 °F 100% 29.68 in 2.5 mi WNW 6.9 mph 18.4 mph N/A Snow Light Snow
10:55 AM 21.2 °F 6.0 °F 19.4 °F 93% 29.68 in 3.0 mi WNW 19.6 mph 27.6 mph N/A Snow Light Snow
11:15 AM 17.6 °F 0.9 °F 17.6 °F 100% 29.69 in 7.0 mi NW 20.7 mph 28.8 mph N/A   Overcast
11:35 AM 17.6 °F 2.2 °F 15.8 °F 93% 29.68 in 10.0 mi WNW 17.3 mph 25.3 mph N/A   Overcast
11:55 AM 17.6 °F -0.3 °F 15.8 °F 93% 29.66 in 4.0 mi WNW 24.2 mph 34.5 mph N/A   Overcast
12:15 PM 17.6 °F -1.3 °F 12.2 °F 79% 29.66 in 7.0 mi West 27.6 mph 38.0 mph N/A   Mostly Cloudy
12:35 PM 17.6 °F 0.5 °F 10.4 °F 73% 29.66 in 10.0 mi WNW 21.9 mph 34.5 mph N/A   Overcast
12:57 PM 15.8 °F -2.3 °F 8.6 °F 73% 29.66 in 10.0 mi West 23.0 mph 32.2 mph N/A   Overcast
1:15 PM 15.8 °F -1.9 °F 6.8 °F 68% 29.65 in 10.0 mi WNW 21.9 mph 38.0 mph N/A   Overcast
1:35 PM 14.0 °F -3.4 °F 6.8 °F 73% 29.64 in 10.0 mi WNW 19.6 mph 31.1 mph N/A   Overcast
1:55 PM 15.8 °F -2.7 °F 6.8 °F 68% 29.64 in 10.0 mi WNW 24.2 mph 33.4 mph N/A   Overcast
2:15 PM 14.0 °F -5.1 °F 5.0 °F 67% 29.65 in 10.0 mi NW 24.2 mph 33.4 mph N/A   Mostly Cloudy
2:36 PM 12.2 °F -7.5 °F 3.2 °F 67% 29.65 in 10.0 mi WNW 24.2 mph 38.0 mph N/A   Mostly Cloudy
2:55 PM 12.2 °F -7.1 °F 3.2 °F 67% 29.65 in 10.0 mi WNW 23.0 mph 41.4 mph N/A   Mostly Cloudy
3:15 PM 12.2 °F -7.5 °F 3.2 °F 67% 29.67 in 7.0 mi NW 24.2 mph 42.6 mph N/A   Scattered Clouds
3:35 PM 12.2 °F -8.2 °F 3.2 °F 67% 29.67 in 10.0 mi WNW 26.5 mph 36.8 mph N/A   Mostly Cloudy
3:55 PM 12.2 °F -7.5 °F 3.2 °F 67% 29.66 in 10.0 mi West 24.2 mph 36.8 mph N/A   Overcast
4:15 PM 10.4 °F -9.5 °F 3.2 °F 73% 29.66 in 10.0 mi WNW 23.0 mph 38.0 mph N/A   Mostly Cloudy
4:35 PM 10.4 °F -6.6 °F 1.4 °F 67% 29.68 in 10.0 mi WNW 16.1 mph 40.3 mph N/A   Mostly Cloudy
4:55 PM 8.6 °F -11.9 °F 1.4 °F 73% 29.69 in 10.0 mi WNW 23.0 mph 31.1 mph N/A   Overcast
5:15 PM 8.6 °F -13.1 °F 1.4 °F 73% 29.70 in 10.0 mi WNW 26.5 mph 36.8 mph N/A   Overcast
5:35 PM 8.6 °F -11.0 °F 1.4 °F 73% 29.71 in 10.0 mi WNW 20.7 mph 36.8 mph N/A   Overcast
5:55 PM 8.6 °F -12.3 °F 3.2 °F 79% 29.71 in 10.0 mi West 24.2 mph 35.7 mph N/A   Overcast
6:17 PM 6.8 °F -16.2 °F 3.2 °F 85% 29.71 in 5.0 mi WNW 28.8 mph 39.1 mph N/A   Overcast
6:35 PM 6.8 °F -14.3 °F 1.4 °F 79% 29.72 in 5.0 mi WNW 23.0 mph 38.0 mph N/A   Haze
6:55 PM 6.8 °F -14.3 °F 1.4 °F 79% 29.74 in 5.0 mi WNW 23.0 mph 36.8 mph N/A   Haze
7:15 PM 6.8 °F -15.5 °F 3.2 °F 85% 29.74 in 4.0 mi WNW 26.5 mph 40.3 mph N/A   Overcast
7:35 PM 6.8 °F -15.9 °F 1.4 °F 79% 29.72 in 10.0 mi WNW 27.6 mph 47.2 mph N/A   Overcast
7:55 PM 6.8 °F -15.1 °F 1.4 °F 79% 29.71 in 4.0 mi WNW 25.3 mph 41.4 mph N/A   Haze
8:15 PM 6.8 °F -14.7 °F 1.4 °F 79% 29.73 in 5.0 mi WNW 24.2 mph 50.6 mph N/A   Haze
8:35 PM 6.8 °F -13.8 °F 1.4 °F 79% 29.73 in 4.0 mi WNW 21.9 mph 40.3 mph N/A   Overcast
8:55 PM 6.8 °F -15.5 °F 1.4 °F 79% 29.74 in 4.0 mi WNW 26.5 mph 43.7 mph N/A   Haze
9:17 PM 6.8 °F -16.9 °F 1.4 °F 79% 29.76 in 4.0 mi WNW 31.1 mph 48.3 mph N/A   Overcast
9:35 PM 5.0 °F -17.9 °F -0.4 °F 78% 29.76 in 5.0 mi WNW 26.5 mph 42.6 mph N/A   Haze
9:55 PM 5.0 °F -19.4 °F -0.4 °F 78% 29.78 in 5.0 mi WNW 31.1 mph 41.4 mph N/A   Haze
10:15 PM 3.2 °F -23.5 °F -0.4 °F 85% 29.77 in 5.0 mi WNW 36.8 mph 49.5 mph N/A   Haze
10:37 PM 3.2 °F -21.1 °F -0.4 °F 85% 29.79 in 7.0 mi WNW 28.8 mph 47.2 mph N/A   Overcast
10:55 PM 3.2 °F -19.5 °F -0.4 °F 85% 29.81 in 7.0 mi WNW 24.2 mph 42.6 mph N/A   Overcast
11:15 PM 3.2 °F -19.5 °F -0.4 °F 85% 29.82 in 10.0 mi WNW 24.2 mph 43.7 mph N/A   Overcast
11:35 PM 3.2 °F -19.5 °F -0.4 °F 85% 29.83 in 10.0 mi WNW 24.2 mph 33.4 mph N/A   Overcast
11:55 PM 3.2 °F -21.5 °F -4.0 °F 72% 29.84 in 10.0 mi WNW 29.9 mph 40.3 mph N/A   Mostly Cloudy